EW7735 Weather Reports


time (UTC)temp
C
wind
direction
speed
KPH
gust
KPH
rain 1hr
cm
rain 24hr
cm
rain mn
cm
humidity
%
barometer
mb
20260906193109 38 156 3.2 12.9 0.00 0.00 0.00 36 1010.3
20260906191504 38 241 1.6 11.3 0.00 0.00 0.00 35 1010.5
20260906190116 37 226 6.4 14.5 0.00 0.00 0.00 34 1010.6
20260906184555 37 176 1.6 9.7 0.00 0.00 0.00 39 1010.8
20260906183113 37 164 1.6 16.1 0.00 0.00 0.00 37 1011.1
20260906181628 37 152 4.8 12.9 0.00 0.00 0.00 38 1011.3
20260906180132 37 155 3.2 12.9 0.00 0.00 0.00 38 1011.7
20260906174631 37 193 4.8 11.3 0.00 0.00 0.00 39 1012.0
20260906173058 37 174 1.6 6.4 0.00 0.00 0.00 40 1012.2
20260906171609 36 154 1.6 11.3 0.00 0.00 0.00 42 1012.4
20260906164556 36 152 3.2 9.7 0.00 0.00 0.00 41 1012.8
20260906163018 36 112 0.0 6.4 0.00 0.00 0.00 43 1012.9
20260906161520 35 281 1.6 6.4 0.00 0.00 0.00 46 1013.0
20260906160014 35 283 0.0 4.8 0.00 0.00 0.00 47 1013.0
20260906154545 35 325 1.6 6.4 0.00 0.00 0.00 47 1012.9
20260906153039 34 150 0.0 6.4 0.00 0.00 0.00 49 1012.8
20260906151548 33 247 1.6 4.8 0.00 0.00 0.00 52 1012.8
20260906150024 32 347 1.6 6.4 0.00 0.00 0.00 55 1012.7
20260906144518 31 228 0.0 4.8 0.00 0.00 0.00 58 1012.7
20260906143025 31 228 0.0 3.2 0.00 0.00 0.00 60 1012.7
20260906141550 30 228 1.6 6.4 0.00 0.00 0.00 61 1012.6
20260906134621 29 153 1.6 6.4 0.00 0.00 0.00 65 1012.5
20260906133122 28 137 1.6 6.4 0.00 0.00 0.00 67 1012.4
20260906131608 27 137 3.2 6.4 0.00 0.00 0.00 69 1012.4
20260906130024 27 137 1.6 3.2 0.00 0.00 0.00 72 1012.4
20260906124631 26 239 0.0 0.0 0.00 0.00 0.00 76 1012.3
20260906123110 25 1 0.0 1.6 0.00 0.00 0.00 76 1012.0
20260906121630 25 1 0.0 1.6 0.00 0.00 0.00 75 1011.9
20260906120127 25 1 0.0 1.6 0.00 0.00 0.00 74 1011.8
20260906114627 26 1 0.0 1.6 0.00 0.00 0.00 73 1011.5
20260906113107 26 1 0.0 0.0 0.00 0.00 0.00 73 1011.5
20260906111549 26 1 0.0 1.6 0.00 0.00 0.00 71 1011.3
20260906104624 26 1 0.0 0.0 0.00 0.00 0.00 70 1011.1
20260906103118 27 1 0.0 0.0 0.00 0.00 0.00 68 1011.0
20260906101555 27 1 0.0 1.6 0.00 0.00 0.00 66 1011.3
20260906100027 28 1 0.0 1.6 0.00 0.00 0.00 64 1011.2
20260906094556 28 1 0.0 1.6 0.00 0.00 0.00 62 1011.3
20260906093015 29 1 0.0 4.8 0.00 0.00 0.00 61 1010.9
20260906091539 29 1 0.0 4.8 0.00 0.00 0.00 60 1010.9
20260906090020 29 1 1.6 6.4 0.00 0.00 0.00 59 1010.8
20260906084630 29 1 0.0 4.8 0.00 0.00 0.00 59 1010.8
20260906083104 29 1 1.6 6.4 0.00 0.00 0.00 59 1010.6
20260906081547 28 1 0.0 8.0 0.00 0.00 0.00 61 1010.5
20260906074553 28 1 0.0 0.0 0.00 0.00 0.00 65 1010.4
20260906073057 27 1 0.0 0.0 0.00 0.00 0.00 67 1010.4
20260906071607 27 1 0.0 0.0 0.00 0.00 0.00 66 1010.6
20260906070110 28 1 0.0 0.0 0.00 0.00 0.00 65 1010.7
20260906064628 28 1 0.0 0.0 0.00 0.00 0.00 64 1010.6
20260906063110 28 1 0.0 0.0 0.00 0.00 0.00 64 1010.7
20260906061555 28 1 0.0 0.0 0.00 0.00 0.00 63 1010.7
20260906054505 29 1 0.0 0.0 0.00 0.00 0.00 60 1010.7
20260906053117 29 1 0.0 0.0 0.00 0.00 0.00 60 1010.7
20260906051558 29 1 0.0 0.0 0.00 0.00 0.00 60 1010.6
20260906050006 30 1 0.0 0.0 0.00 0.00 0.00 59 1010.4
20260906044543 30 1 0.0 0.0 0.00 0.00 0.00 58 1010.4
20260906043027 30 1 0.0 0.0 0.00 0.00 0.00 57 1010.5
20260906041518 30 1 0.0 0.0 0.00 0.00 0.00 55 1010.5
20260906034555 30 1 0.0 0.0 0.00 0.00 0.00 54 1010.5
20260906033022 31 1 0.0 0.0 0.00 0.00 0.00 54 1010.4
20260906031526 31 1 0.0 0.0 0.00 0.00 0.00 53 1010.4
20260906030011 31 1 0.0 0.0 0.00 0.00 0.00 52 1010.3
20260906024507 31 1 0.0 0.0 0.00 0.00 0.00 50 1010.3
20260906023012 31 1 0.0 0.0 0.00 0.00 0.00 49 1010.0
20260906021545 31 1 0.0 0.0 0.00 0.00 0.00 50 1009.7
20260906014630 32 112 0.0 0.0 0.00 0.00 0.00 47 1009.6
20260906013117 33 112 0.0 0.0 0.00 0.00 0.00 46 1009.4
20260906011632 33 112 0.0 0.0 0.00 0.00 0.00 44 1009.3
20260906010146 35 112 0.0 0.0 0.00 0.00 0.00 41 1009.3
20260906004627 35 112 0.0 1.6 0.00 0.00 0.00 39 1009.1
20260906003113 36 112 0.0 4.8 0.00 0.00 0.00 39 1009.1
20260906001600 36 112 0.0 3.2 0.00 0.00 0.00 38 1009.0
20260906000115 36 123 1.6 6.4 0.00 0.00 0.00 38 1009.0
20260905234548 37 133 0.0 6.4 0.00 0.00 0.00 37 1009.0
20260905233015 37 99 0.0 6.4 0.00 0.00 0.00 36 1008.8
20260905231513 37 163 0.0 12.9 0.00 0.00 0.00 36 1008.8
20260905224559 37 160 3.2 12.9 0.00 0.00 0.00 37 1008.9
20260905223111 37 153 1.6 16.1 0.00 0.00 0.00 36 1008.9
20260905221603 37 179 6.4 14.5 0.00 0.00 0.00 37 1009.0
20260905220021 37 187 6.4 14.5 0.00 0.00 0.00 37 1009.1
20260905214548 37 135 4.8 12.9 0.00 0.00 0.00 38 1009.3
20260905213013 37 135 6.4 16.1 0.00 0.00 0.00 38 1009.4
20260905211549 37 151 4.8 16.1 0.00 0.00 0.00 39 1009.7
20260905210037 37 156 1.6 16.1 0.00 0.00 0.00 38 1009.8
20260905204637 37 54 3.2 12.9 0.00 0.00 0.00 38 1010.1
20260905203103 37 216 3.2 14.5 0.00 0.00 0.00 39 1010.3
20260905201555 37 146 11.3 19.3 0.00 0.00 0.00 39 1010.6
20260905194622 36 129 11.3 24.1 0.00 0.00 0.00 41 1011.0